COSMOS 2513

导读

COSMOS 2513(宇宙2513)是独联体(CIS,即俄罗斯)发射的军用卫星,于2015年12月13日成功送入太空,隶属于俄罗斯经典的“宇宙”系列卫星体系。该系列卫星多承担军事侦察、航天技术试验等任务,Cosmos 2513延续了这一定位,服务于俄罗斯国防空间感知能力建设,是俄空间军事部署的重要组成部分,目前仍在既定轨道运行,支撑俄罗斯航天军事体系运转。

基本信息
目录编号:
41121
目录名称:
COSMOS 2513
国际标识:
2015-075A
轨道中心:
EARTH
卫星名称:
COSMOS 2513
卫星全名:
--
卫星状态:
在轨 (已飞行3928 天)
发射日期:
2015-12-13 UTC
国别 :
俄罗斯(独联体) (CIS)
星等 :
--
该卫星已列入 空间交会检测服务 Space Conjunction Data Service (SCDS) ,当前飞行风险评估等级: 无高风险
轨道信息
数据来源 国际轨道数据 AOE轨道数据
星历时间 2026-09-14T04:42:22+0800
6小时前
查看轨道信息
2026-09-12T11:00:00+0800
1天前
查看轨道信息
半长轴 42164.168km 42164.504km
偏心率 0.0001213 0.000102
轨道倾角 0.047° 0.051°
近地点辐角 98.560° 89.155°
升交点赤经 104.807° 103.350°
平近点角 180.340° 283.883°
近地点 35780.916km 35782.066km
远地点 35791.146km 35790.668km
周期 1436.068分钟 1436.085分钟
每日圈数 1.002738 1.002726
详细信息
使用方式:
暂无
2D轨道图
3D轨道图
轨道高度分析图
轨道倾角分析图
轨道综合分析图
查看轨道综合分析图
与全量物体交会距离演化趋势 订阅飞行安全评估服务
与全量物体交会风险概率演化趋势 订阅飞行安全评估服务